This is the latest recevied weather packets stored in our database for station/object KY4GW. If no packets are shown the sender has not sent any weather packets the latest 10 day(s).
| Time | Temp. | Humidity | Pressure | Rain* | Wind** | Luminosity | Snow |
|---|---|---|---|---|---|---|---|
| 1777836675 | 16.67° C | 39% | 1020.4 hPa | 0 mm | - | 722 W/m² | - |
| 1777836370 | 16.67° C | 39% | 1020.7 hPa | 0 mm | - | 730 W/m² | - |
| 1777836066 | 16.67° C | 38% | 1020.7 hPa | 0 mm | - | 737 W/m² | - |
| 1777835764 | 17.22° C | 39% | 1020.7 hPa | 0 mm | - | 742 W/m² | - |
| 1777835460 | 16.67° C | 41% | 1020.7 hPa | 0 mm | - | 751 W/m² | - |
| 1777835157 | 16.67° C | 36% | 1020.7 hPa | 0 mm | - | 762 W/m² | - |
| 1777834854 | 17.22° C | 37% | 1021.1 hPa | 0 mm | - | 778 W/m² | - |
| 1777834551 | 16.67° C | 37% | 1021.1 hPa | 0 mm | - | 792 W/m² | - |
| 1777834250 | 16.67° C | 36% | 1021.1 hPa | 0 mm | - | 801 W/m² | - |
| 1777833946 | 16.67° C | 38% | 1021.1 hPa | 0 mm | - | 814 W/m² | - |
| 1777833643 | 16.11° C | 42% | 1021.1 hPa | 0 mm | - | 821 W/m² | - |
| 1777833340 | 16.11° C | 36% | 1021.1 hPa | 0 mm | - | 831 W/m² | - |
| 1777833037 | 16.11° C | 41% | 1021.4 hPa | 0 mm | - | 837 W/m² | - |
| 1777832736 | 16.67° C | 39% | 1021.4 hPa | 0 mm | - | 847 W/m² | - |
| 1777832433 | 16.11° C | 38% | 1021.4 hPa | 0 mm | - | 850 W/m² | - |
| 1777832130 | 15.56° C | 42% | 1021.4 hPa | 0 mm | - | 854 W/m² | - |
| 1777831826 | 16.67° C | 40% | 1021.4 hPa | 0 mm | - | 847 W/m² | - |
| 1777831524 | 16.11° C | 40% | 1021.4 hPa | 0 mm | - | 849 W/m² | - |
| 1777831221 | 16.11° C | 42% | 1021.8 hPa | 0 mm | - | 855 W/m² | - |
| 1777830918 | 16.11° C | 40% | 1021.8 hPa | 0 mm | - | 857 W/m² | - |
| 1777830615 | 16.11° C | 38% | 1021.8 hPa | 0 mm | - | 863 W/m² | - |
| 1777830313 | 16.11° C | 36% | 1022.1 hPa | 0 mm | - | 865 W/m² | - |
| 1777830008 | 16.11° C | 42% | 1022.1 hPa | 0 mm | - | 869 W/m² | - |
| 1777829704 | 15.56° C | 38% | 1022.1 hPa | 0 mm | - | 874 W/m² | - |
| 1777829400 | 16.11° C | 36% | 1022.8 hPa | 0 mm | - | 876 W/m² | - |
* Rain latest hour (hover to see other rain measurements)
** Current wind speed in m/s (hover to see current wind gust speed)